Cosmos 2084 - Orbit

View from above orbital plane
View from above orbital plane
View from above satellite
View from above satellite

Ground track
Ground track

The orbit data is extracted from the following two-line orbital elements,

1 20663U 90055A   13137.46677507  .00001044  00000-0  12729-3 0  8007
2 20663 062.7949 153.8310 0075906 173.3935 186.8176 14.87850863237521
Epoch (UTC): 17 May 2013 11:12:09
Eccentricity: 0.0075906
inclination: 62.7949°
perigee height: 551 km
apogee height: 657 km
right ascension of ascending node: 153.8310°
argument of perigee: 173.3935°
revolutions per day: 14.87850863
mean anomaly at epoch: 186.8176°
orbit number at epoch: 23752

The dashed part of the orbit path shows where the satellite is in the earth's shadow,  

Developed and maintained by Chris Peat, Heavens-Above GmbH. Please read the updated FAQ before sending e-mail. Imprint. DLR